Home > Weather > Montfoort > Past weeks

Flag for Netherlands Weather for the Past 2 Weeks in Montfoort, Netherlands

Now
34 °F

Mixture of precip. Low clouds.


Feels Like: 31 °F
Forecast: 32 / 38 °F
Wind: 3 mph from North

Location: De Bilt

Current Time: Feb 14, 2016 at 4:34:23 PM

Latest Report: Feb 14, 2016 at 3:00 PM


Visibility: 1 mi

Pressure: 29.26 "Hg

Humidity: 95%

Dew point: 32 °F

Location of MontfoortLocation

Historic Weather in Montfoort — Graph

°F

Montfoort Temperature Yesterday

Maximum temperature yesterday: 40 °F (at 4:00 PM)
Minimum temperature yesterday: 29 °F (at 7:00 AM)
Average temperature yesterday: 35 °F

High & Low Weather Summary for the Past Weeks

 TemperatureHumidityPressure
High53 °F (Feb 1, 1:00 PM)98% (Feb 12, 4:00 AM)30.27 "Hg (Feb 12, 4:00 AM)
Low29 °F (Feb 13, 7:00 AM)63% (Jan 31, 1:00 AM)28.94 "Hg (Feb 9, 3:00 PM)
Average42 °F83%29.47 "Hg
* Reported Jan 30 4:00 PM — Feb 14 3:00 PM, Montfoort, Weather by CustomWeather, © 2016

Note: Actual official high and low records may vary slightly from our data, if they occured in-between our weather recording intervals... More about our weather records

Advertising

Montfoort Weather History for the Previous 24 Hours

 ConditionsComfort  
Time TempWeatherWind HumidityBarometerVisibility
3:00 PM
Sun, Feb 14
34 °FMixture of precip. Low clouds.3 mph95%29.26 "Hg1 mi
2:00 PM34 °FMixture of precip. Low clouds.5 mph95%29.26 "Hg2 mi
1:00 PM35 °FLight rain. Low clouds.5 mph94%29.23 "Hg3 mi
12:00 PM35 °FLight rain. Low clouds.5 mph94%29.21 "Hg3 mi
11:00 AM34 °FMixture of precip. Low clouds.6 mph94%29.21 "Hg2 mi
10:00 AM35 °FLight rain. Low clouds.6 mph94%29.18 "Hg3 mi
9:00 AM34 °FLight rain. Low clouds.6 mph94%29.15 "Hg2 mi
8:00 AM34 °FLight rain. Low clouds.6 mph94%29.12 "Hg2 mi
7:00 AM33 °FMixture of precip. Low clouds.5 mph96%29.12 "Hg1 mi
6:00 AM34 °FLight rain. Low clouds.5 mph95%29.12 "Hg2 mi
5:00 AM34 °FDrizzle. Low clouds.5 mph95%29.09 "Hg2 mi
4:00 AM34 °FLight rain. Low clouds.5 mph95%29.09 "Hg2 mi
3:00 AM35 °FLight rain. Low clouds.5 mph94%29.09 "Hg2 mi
2:00 AM35 °FDrizzle. Low clouds.6 mph94%29.09 "Hg2 mi
1:00 AM36 °FLow clouds.6 mph92%29.06 "Hg3 mi
9:00 PM
Sat, Feb 13
38 °FOvercast.6 mph85%29.09 "Hg7 mi
8:00 PM38 °FDrizzle. Overcast.5 mph85%29.09 "Hg6 mi
7:00 PM38 °FOvercast.6 mph85%29.09 "Hg6 mi
6:00 PM39 °FOvercast.6 mph78%29.09 "Hg9 mi
5:00 PM39 °FPartly sunny.5 mph78%29.12 "Hg9 mi
4:00 PM40 °FScattered clouds.6 mph76%29.12 "Hg10 mi
Weather by CustomWeather, © 2016

See weather overviewHow to use our weather pages